Ten-Koh (43677 NORAD) Tracking and Keplerian Element Data

This shows tracking and keplerian element data for the satellite.

Feedback or suggestion? Click here.




ElementValue
Catalog43677
NameTen-Koh
Epoch Orbit32425
Epoch Day286.4050659
Epoch Year2024
RAAN83.6056
Inclination98.0789
Eccentricity0.0013436
Argument of Perigee354.8512
Mean Anonmoly5.2569
Mean Motion14.97642664
Decay Rate9.482E-05
L11 43677U 18084G 24286.40506590 .00009482 00000-0 81374-3 0 9998
L22 43677 98.0789 83.6056 0013436 354.8512 5.2569 14.97642664324255



Live tracking and technical data element details for Ten-Koh (NORAD 43677). Ten-Koh can be tracked NOW for your location showing map with azimuth and elevation plus other details from your city location.







IsCatalogInMostPopularTable: catalog: 43677, numindb: 542
Update: records affected: 1



GetName: 43677 Ten-Koh

Hit Count: updated at: Fri, 24 Jan 2025 22:47:51 GMT